OPS 4682 DEB, 19576

Orbit data source: Space-Track

OPS 4682 DEB, 19576 is space debris in LEO originally from a launch on Sat, 03 Apr 1965 UTC launched from the Air Force Western Test Range (AFWTR). Debris objects in space refer to the collection of defunct objects orbiting the Earth. Examples of debris include non-operational satellites, rocket bodies, and fragments generated from explosions, collisions, or faulty payload assembly.

Loading next visibility...
Identifier
19576, 1965-027AV
Orbit
LEO
Country
Flag of USUS
Related business
Manufacturer
Unknown
Mission
Spacecraft
Bus & Motor
Unknown
Mass
Unknown
Launch date (UTC)
1965-04-03 (61 years ago)
Launch vehicle
Unknown
Launch site
Air Force Western Test Range (AFWTR)
Object type
Payload
Rocket body
Debris
Shape & HBR
Unknown shape, 0.1 m
Radar Cross Section
Medium (>0.1 m² and <1 m²)

Expand to show TLE details & history
Last TLE update: 2 days ago

TLE from 2 days ago
0 OPS 4682 DEB
1 19576U 65027AV  26261.57106734 -.00000712  00000-0 -23621-2 0  9996
2 19576  90.2487  11.1754 0025733 332.1016  41.7822 13.00756552810495
Epoch: 2026-09-18T13:42Z
TLE epoch observation values (Epoch: 2026-09-18T13:42:20.218Z)
Latitude
14.04971°
Longitude
168.03719°
Altitude
1,246.651 km
Speed
7.24 km/s
True Right ascension
00h 44m 27s
True Declination
13° 58' 27"
Sunlit
Object was in full shadow at epoch
Visualization orbit readout
Latitude
Unknown
Longitude
Unknown
Altitude
Unknown
Speed
Unknown
Apparent Right ascension
Unknown
Apparent Declination
Unknown
Sunlit
N/A
Visualization observer readout
Local Sidereal Time
08:49:16
Azimuth
Unknown
Elevation
Unknown
Doppler factor
Unknown
Orbital elements
Apogee altitude
1,275.895 km
Perigee altitude
1,236.604 km
Semi-major axis
7,634.387 km
Eccentricity
0.00257
Inclination
90.2487°
RAAN
11.1754°
Arg. of periapsis
332.1016°
True anomaly
41.97915°
Mean anomaly
41.7822°
Eccentric anomaly
41.88063°
Mean motion
3.25373 °/min
Orbital period
110.64 mins
BSTAR
-0.0023621
Loading maneuver chart data...
Computing Atmospheric mass density...
Loading historical data...
Loading historical data...
Loading historical data...
Loading historical data...
Loading historical data...
Loading historical data...
Loading historical data...

Documentation

Showing up to 5 results
|